Location: Newark
(40.4667°N, 5.6000°W)
Time: 02:26:09
(UTC+00:00)

N. Korean satellite - Visible Passes

Search period start: 23 March 2019 00:00
Search period end: 02 April 2019 00:00
Orbit: 456 x 510 km, 97.2° (Epoch: 22 March)

Date Brightness Start Highest point End Pass type
(mag) Time Alt. Az. Time Alt. Az. Time Alt. Az.
23 Mar 9.5 05:51:22 10° NE 05:54:15 23° E 05:57:08 10° SSE visible
24 Mar 10.3 05:28:04 10° ENE 05:29:16 11° E 05:30:27 10° ESE visible
27 Mar 9.7 05:45:38 10° NE 05:48:20 20° E 05:51:03 10° SE visible
31 Mar 9.8 05:39:54 10° NE 05:42:22 17° E 05:44:50 10° SE visible
